GW5308 Weather Reports


time (UTC)temp
C
wind
direction
speed
KPH
gust
KPH
rain 1hr
cm
rain 24hr
cm
rain mn
cm
humidity
%
barometer
mb
20260831212526 28 0 0.0 1.6 0.00 0.05 0.05 91 1016.0
20260831212020 28 0 0.0 0.0 0.00 0.05 0.05 90 1015.9
20260831211543 28 0 0.0 0.0 0.00 0.05 0.05 90 1015.8
20260831211018 28 0 0.0 0.0 0.00 0.05 0.05 90 1015.8
20260831210520 28 0 0.0 1.6 0.00 0.05 0.05 89 1015.8
20260831210047 28 0 0.0 1.6 0.00 0.05 0.05 89 1015.8
20260831205521 28 0 0.0 0.0 0.00 0.05 0.05 88 1015.6
20260831205023 28 0 0.0 1.6 0.00 0.05 0.05 89 1015.7
20260831204535 28 0 0.0 1.6 0.00 0.05 0.05 88 1015.7
20260831204024 28 8 0.0 4.8 0.00 0.05 0.05 88 1015.7
20260831203521 28 0 0.0 4.8 0.00 0.05 0.05 88 1015.7
20260831203038 28 0 0.0 0.0 0.00 0.05 0.05 89 1015.8
20260831202520 28 0 0.0 0.0 0.00 0.05 0.05 88 1015.7
20260831202018 28 0 0.0 1.6 0.00 0.05 0.05 85 1015.5
20260831201546 29 0 0.0 4.8 0.00 0.05 0.05 84 1015.6
20260831201034 29 0 0.0 4.8 0.00 0.05 0.05 84 1015.8
20260831200523 29 0 1.6 6.4 0.00 0.05 0.05 83 1015.6
20260831200042 30 0 0.0 6.4 0.00 0.05 0.05 83 1015.7
20260831195524 30 4 0.0 6.4 0.00 0.05 0.05 83 1015.7
20260831195023 30 351 1.6 8.0 0.00 0.05 0.05 82 1015.7
20260831194613 30 334 3.2 8.0 0.00 0.05 0.05 81 1015.6
20260831194021 30 11 1.6 6.4 0.00 0.05 0.05 82 1015.6
20260831193522 30 0 0.0 8.0 0.00 0.05 0.05 82 1015.6
20260831193043 30 302 1.6 8.0 0.00 0.05 0.05 82 1015.5
20260831192523 31 325 1.6 8.0 0.00 0.05 0.05 78 1015.3
20260831192019 31 359 1.6 8.0 0.00 0.05 0.05 79 1015.4
20260831191539 32 13 0.0 4.8 0.00 0.05 0.05 78 1015.4
20260831191021 32 137 1.6 8.0 0.00 0.05 0.05 77 1015.4
20260831190519 32 0 1.6 8.0 0.00 0.05 0.05 77 1015.4
20260831190043 32 11 1.6 8.0 0.00 0.05 0.05 80 1015.4
20260831185521 32 297 3.2 9.7 0.00 0.05 0.05 78 1015.4
20260831185022 32 356 3.2 9.7 0.00 0.05 0.05 81 1015.4
20260831184605 31 80 1.6 4.8 0.00 0.05 0.05 83 1015.7
20260831184019 31 340 0.0 6.4 0.00 0.05 0.05 82 1015.6
20260831183520 31 344 1.6 8.0 0.00 0.05 0.05 82 1015.7
20260831183044 31 304 1.6 8.0 0.00 0.05 0.05 82 1015.8
20260831182521 31 18 3.2 8.0 0.00 0.05 0.05 82 1015.9
20260831182020 31 314 1.6 4.8 0.00 0.05 0.05 82 1015.9
20260831181540 31 0 0.0 6.4 0.00 0.05 0.05 84 1015.9
20260831181021 30 0 1.6 6.4 0.00 0.05 0.05 87 1016.0
20260831180526 30 328 0.0 4.8 0.00 0.05 0.05 86 1016.1
20260831180044 30 30 0.0 4.8 0.00 0.05 0.05 87 1016.2
20260831175519 30 0 0.0 6.4 0.00 0.18 0.05 87 1016.2
20260831175019 30 0 1.6 6.4 0.00 0.18 0.05 87 1016.4
20260831174536 30 0 0.0 1.6 0.03 0.18 0.05 92 1016.4
20260831174021 29 283 0.0 1.6 0.05 0.18 0.05 92 1016.5
20260831173524 29 0 0.0 3.2 0.05 0.18 0.05 94 1016.5
20260831173051 28 0 0.0 3.2 0.05 0.18 0.05 94 1016.6
20260831172519 28 0 0.0 3.2 0.05 0.18 0.05 93 1016.7
20260831172021 28 11 0.0 3.2 0.05 0.18 0.05 95 1016.8
20260831171538 28 0 0.0 3.2 0.05 0.18 0.05 95 1016.9
20260831171019 28 0 0.0 3.2 0.05 0.18 0.05 96 1017.0
20260831170520 28 0 0.0 3.2 0.05 0.18 0.05 96 1017.1
20260831170037 28 0 0.0 3.2 0.05 0.18 0.05 97 1017.2
20260831165522 28 0 0.0 4.8 0.05 0.18 0.05 97 1017.3
20260831165020 28 34 0.0 8.0 0.05 0.18 0.05 94 1017.4
20260831164538 28 1 0.0 8.0 0.03 0.15 0.03 93 1017.5
20260831164021 29 7 1.6 8.0 0.00 0.13 0.00 89 1017.2
20260831163523 30 0 0.0 3.2 0.00 0.13 0.00 85 1017.2
20260831163039 30 0 0.0 3.2 0.00 0.13 0.00 82 1017.2
20260831162521 32 0 0.0 3.2 0.00 0.13 0.00 78 1017.3
20260831162020 33 0 0.0 0.0 0.00 0.13 0.00 73 1017.3
20260831161542 33 0 0.0 1.6 0.00 0.13 0.00 74 1017.2
20260831161021 32 0 0.0 1.6 0.00 0.13 0.00 77 1017.3
20260831160521 32 0 0.0 1.6 0.00 0.13 0.00 74 1017.3
20260831160042 32 0 0.0 1.6 0.00 0.13 0.00 75 1017.5
20260831155521 32 0 0.0 1.6 0.00 0.13 0.00 75 1017.5
20260831155021 32 0 0.0 1.6 0.00 0.13 0.00 76 1017.6
20260831154603 32 0 0.0 0.0 0.00 0.13 0.00 77 1017.7
20260831154023 31 0 0.0 0.0 0.00 0.13 0.00 80 1017.7
20260831153526 32 0 0.0 0.0 0.00 0.13 0.00 80 1017.7
20260831153043 31 0 0.0 0.0 0.00 0.13 0.00 81 1017.6
20260831152519 31 0 0.0 0.0 0.00 0.13 0.00 80 1017.6
20260831152021 31 0 0.0 0.0 0.00 0.13 0.00 83 1017.6
20260831151537 31 0 0.0 0.0 0.00 0.13 0.00 84 1017.6
20260831151022 31 0 0.0 0.0 0.00 0.13 0.00 83 1017.5
20260831150520 31 0 0.0 0.0 0.00 0.13 0.00 84 1017.5
20260831150042 30 0 0.0 0.0 0.00 0.13 0.00 84 1017.4
20260831145517 30 0 0.0 0.0 0.00 0.13 0.00 86 1017.5
20260831145019 30 0 0.0 0.0 0.00 0.13 0.00 84 1017.5
20260831144550 30 0 0.0 0.0 0.00 0.13 0.00 86 1017.5
20260831144019 30 0 0.0 0.0 0.00 0.13 0.00 85 1017.5
20260831143519 31 0 0.0 0.0 0.00 0.13 0.00 84 1017.3
20260831143045 30 0 0.0 0.0 0.00 0.13 0.00 85 1017.2
20260831142520 30 0 0.0 0.0 0.00 0.13 0.00 86 1017.2
20260831142022 30 0 0.0 0.0 0.00 0.13 0.00 86 1017.1
20260831141537 30 0 0.0 0.0 0.00 0.13 0.00 88 1017.1
20260831141019 30 0 0.0 0.0 0.00 0.13 0.00 89 1017.1
20260831140519 29 0 0.0 0.0 0.00 0.13 0.00 92 1017.2
20260831140040 29 0 0.0 0.0 0.00 0.13 0.00 91 1017.2
20260831135521 29 0 0.0 0.0 0.00 0.13 0.00 91 1017.1
20260831135025 28 0 0.0 0.0 0.00 0.13 0.00 94 1017.2
20260831134540 28 0 0.0 0.0 0.00 0.13 0.00 95 1017.0
20260831134024 27 0 0.0 0.0 0.00 0.13 0.00 96 1017.1
20260831133521 27 0 0.0 0.0 0.00 0.13 0.00 98 1017.1
20260831133040 27 0 0.0 0.0 0.00 0.13 0.00 99 1017.1
20260831132521 27 0 0.0 0.0 0.00 0.13 0.00 100 1016.9
20260831132020 26 0 0.0 0.0 0.00 0.13 0.00 100 1016.9
20260831131542 26 0 0.0 0.0 0.00 0.13 0.00 100 1016.9
20260831131020 25 0 0.0 0.0 0.00 0.13 0.00 100 1016.9
20260831130520 25 0 0.0 0.0 0.00 0.13 0.00 100 1017.0
20260831130045 25 0 0.0 1.6 0.00 0.13 0.00 100 1016.8
20260831125521 25 0 0.0 1.6 0.00 0.13 0.00 100 1016.8
20260831125021 25 0 0.0 1.6 0.00 0.13 0.00 100 1016.7
20260831124535 24 0 0.0 0.0 0.00 0.13 0.00 100 1016.8
20260831124019 23 0 0.0 0.0 0.00 0.13 0.00 100 1016.7
20260831123520 23 0 0.0 0.0 0.00 0.13 0.00 100 1016.7
20260831123038 23 0 0.0 0.0 0.00 0.13 0.00 100 1016.6
20260831122524 23 0 0.0 0.0 0.00 0.13 0.00 100 1016.5
20260831122019 23 0 0.0 0.0 0.00 0.13 0.00 100 1016.5
20260831121537 23 0 0.0 0.0 0.00 0.13 0.00 100 1016.6
20260831121018 23 0 0.0 0.0 0.00 0.13 0.00 100 1016.5
20260831120521 22 0 0.0 0.0 0.00 0.13 0.00 100 1016.5
20260831120040 22 0 0.0 0.0 0.00 0.13 0.00 100 1016.5
20260831115525 22 0 0.0 0.0 0.00 0.13 0.00 100 1016.4
20260831115021 22 0 0.0 0.0 0.00 0.13 0.00 100 1016.3
20260831114541 22 0 0.0 0.0 0.00 0.13 0.00 100 1016.2
20260831114021 22 0 0.0 0.0 0.00 0.13 0.00 100 1016.2
20260831113521 22 0 0.0 0.0 0.00 0.13 0.00 100 1016.1
20260831113037 22 0 0.0 0.0 0.00 0.13 0.00 100 1016.1
20260831112520 22 0 0.0 0.0 0.00 0.13 0.00 100 1015.9
20260831112020 22 0 0.0 0.0 0.00 0.13 0.00 100 1015.9
20260831111559 22 0 0.0 0.0 0.00 0.13 0.00 100 1015.8
20260831111017 22 0 0.0 0.0 0.00 0.13 0.00 100 1015.9
20260831110519 22 0 0.0 0.0 0.00 0.13 0.00 100 1015.9
20260831110146 22 0 0.0 0.0 0.00 0.13 0.00 100 1015.8
20260831105519 22 0 0.0 0.0 0.00 0.13 0.00 100 1015.8
20260831105021 22 0 0.0 0.0 0.00 0.13 0.00 100 1015.8
20260831104535 22 0 0.0 0.0 0.00 0.13 0.00 100 1015.7
20260831104019 22 0 0.0 0.0 0.00 0.13 0.00 100 1015.5
20260831103519 22 0 0.0 0.0 0.00 0.13 0.00 100 1015.4
20260831103043 22 0 0.0 0.0 0.00 0.13 0.00 100 1015.3
20260831102517 22 0 0.0 0.0 0.00 0.13 0.00 100 1015.3
20260831102019 22 0 0.0 0.0 0.00 0.13 0.00 100 1015.2
20260831101541 22 0 0.0 0.0 0.00 0.13 0.00 100 1015.2
20260831101019 22 0 0.0 0.0 0.00 0.13 0.00 100 1015.2
20260831100520 22 0 0.0 0.0 0.00 0.13 0.00 100 1015.2
20260831100039 22 0 0.0 0.0 0.00 0.13 0.00 100 1015.2
20260831095519 22 0 0.0 0.0 0.00 0.13 0.00 100 1015.3
20260831095019 22 0 0.0 0.0 0.00 0.13 0.00 100 1015.2
20260831094540 22 0 0.0 0.0 0.00 0.13 0.00 100 1015.2
20260831094019 22 0 0.0 0.0 0.00 0.13 0.00 100 1015.1
20260831093524 22 0 0.0 0.0 0.00 0.13 0.00 100 1015.2
20260831093041 22 0 0.0 0.0 0.00 0.13 0.00 100 1015.2
20260831092517 22 0 0.0 0.0 0.00 0.13 0.00 100 1015.3
20260831092022 22 0 0.0 0.0 0.00 0.13 0.00 100 1015.2
20260831091538 22 0 0.0 0.0 0.00 0.13 0.00 100 1015.2
20260831091021 22 0 0.0 0.0 0.00 0.13 0.00 100 1015.2
20260831090521 22 0 0.0 0.0 0.00 0.13 0.00 100 1015.1
20260831090038 22 0 0.0 0.0 0.00 0.13 0.00 100 1015.1
20260831085521 22 0 0.0 0.0 0.00 0.13 0.00 100 1015.1
20260831085024 22 0 0.0 0.0 0.00 0.13 0.00 100 1015.0
20260831084542 22 0 0.0 0.0 0.00 0.13 0.00 100 1015.2
20260831084020 22 0 0.0 0.0 0.00 0.13 0.00 100 1015.2
20260831083520 22 0 0.0 0.0 0.00 0.13 0.00 100 1015.2
20260831083045 22 0 0.0 0.0 0.00 0.13 0.00 100 1015.2
20260831082518 22 0 0.0 0.0 0.00 0.13 0.00 100 1015.3
20260831082019 22 0 0.0 0.0 0.00 0.13 0.00 100 1015.2
20260831081546 22 0 0.0 0.0 0.00 0.13 0.00 100 1015.3
20260831081020 22 0 0.0 0.0 0.00 0.13 0.00 100 1015.4
20260831080521 22 0 0.0 0.0 0.00 0.13 0.00 100 1015.4
20260831080040 22 0 0.0 0.0 0.00 0.13 0.00 100 1015.5
20260831075519 22 0 0.0 0.0 0.00 0.13 0.00 100 1015.5
20260831075027 22 0 0.0 0.0 0.00 0.13 0.00 100 1015.5
20260831074542 22 0 0.0 0.0 0.00 0.13 0.00 100 1015.5
20260831074018 22 0 0.0 0.0 0.00 0.13 0.00 100 1015.4
20260831073516 22 0 0.0 0.0 0.00 0.13 0.00 100 1015.5
20260831073102 22 0 0.0 0.0 0.00 0.13 0.00 100 1015.5
20260831072521 22 0 0.0 0.0 0.00 0.13 0.00 100 1015.5
20260831072021 22 0 0.0 0.0 0.00 0.13 0.00 100 1015.5
20260831071538 22 0 0.0 0.0 0.00 0.13 0.00 100 1015.5
20260831071025 22 0 0.0 0.0 0.00 0.13 0.00 100 1015.6
20260831070519 22 0 0.0 0.0 0.00 0.13 0.00 100 1015.5
20260831070039 22 0 0.0 0.0 0.00 0.13 0.00 100 1015.6
20260831065522 22 0 0.0 0.0 0.00 0.13 0.00 100 1015.6
20260831065020 22 0 0.0 0.0 0.00 0.13 0.00 100 1015.8
20260831064541 22 0 0.0 0.0 0.00 0.13 0.00 100 1015.8
20260831064017 22 0 0.0 0.0 0.00 0.13 0.00 100 1015.8
20260831063517 23 0 0.0 0.0 0.00 0.13 0.00 100 1015.9
20260831063035 23 0 0.0 0.0 0.00 0.13 0.00 100 1015.9
20260831062524 23 0 0.0 0.0 0.00 0.13 0.00 100 1015.9
20260831062020 23 0 0.0 0.0 0.00 0.13 0.00 100 1016.0
20260831061538 23 0 0.0 0.0 0.00 0.13 0.00 100 1016.0
20260831061023 23 0 0.0 0.0 0.00 0.13 0.00 100 1016.0
20260831060521 23 0 0.0 0.0 0.00 0.13 0.00 100 1016.0
20260831060053 23 0 0.0 0.0 0.00 0.13 0.00 100 1015.9
20260831055522 23 0 0.0 0.0 0.00 0.13 0.00 100 1016.0
20260831055021 23 0 0.0 0.0 0.00 0.13 0.00 100 1016.1
20260831054542 23 0 0.0 0.0 0.00 0.13 0.00 100 1016.1
20260831054017 23 0 0.0 0.0 0.00 0.13 0.00 100 1016.2
20260831053518 23 0 0.0 0.0 0.00 0.13 0.00 100 1016.1
20260831053038 23 0 0.0 0.0 0.00 0.13 0.00 100 1016.1
20260831052519 23 0 0.0 0.0 0.00 0.13 0.00 100 1016.1
20260831052021 23 0 0.0 0.0 0.00 0.13 0.00 100 1016.1
20260831051542 23 0 0.0 0.0 0.00 0.13 0.00 100 1016.1
20260831051018 23 0 0.0 0.0 0.00 0.13 0.00 100 1016.2
20260831050524 23 0 0.0 0.0 0.00 0.13 0.00 100 1016.1
20260831050046 23 0 0.0 0.0 0.00 0.13 0.00 100 1016.2
20260831045517 23 0 0.0 0.0 0.00 0.13 0.00 100 1016.2
20260831045020 23 0 0.0 0.0 0.00 0.13 0.00 100 1016.2
20260831044538 23 0 0.0 0.0 0.00 0.13 0.00 100 1016.1
20260831044050 23 0 0.0 0.0 0.00 0.13 0.00 100 1016.2
20260831043519 23 0 0.0 0.0 0.00 0.13 0.00 100 1016.1
20260831043038 23 0 0.0 0.0 0.00 0.13 0.00 100 1016.2
20260831042521 23 0 0.0 0.0 0.00 0.13 0.00 100 1016.2
20260831042017 23 0 0.0 0.0 0.00 0.13 0.00 100 1016.2
20260831041546 23 0 0.0 0.0 0.00 0.13 0.00 100 1016.3
20260831041020 23 0 0.0 0.0 0.00 0.13 0.00 100 1016.2
20260831040521 23 0 0.0 0.0 0.00 0.13 0.00 100 1016.1
20260831040048 23 0 0.0 0.0 0.00 0.13 0.00 100 1016.2
20260831035523 23 0 0.0 0.0 0.00 0.13 0.13 100 1016.2
20260831035019 24 0 0.0 0.0 0.00 0.13 0.13 100 1016.3
20260831034539 24 0 0.0 0.0 0.00 0.13 0.13 100 1016.2
20260831034019 24 0 0.0 0.0 0.00 0.13 0.13 100 1016.2
20260831033519 24 0 0.0 0.0 0.00 0.13 0.13 100 1016.3
20260831033042 24 0 0.0 0.0 0.00 0.13 0.13 100 1016.2
20260831032517 24 0 0.0 0.0 0.00 0.13 0.13 100 1016.3
20260831032018 24 0 0.0 0.0 0.00 0.13 0.13 100 1016.2
20260831031537 24 0 0.0 0.0 0.00 0.13 0.13 100 1016.4
20260831031027 24 0 0.0 0.0 0.00 0.13 0.13 100 1016.5
20260831030518 24 0 0.0 0.0 0.00 0.13 0.13 100 1016.5
20260831030048 24 0 0.0 0.0 0.00 0.13 0.13 100 1016.4
20260831025528 25 0 0.0 0.0 0.00 0.13 0.13 100 1016.4
20260831025020 25 0 0.0 0.0 0.00 0.13 0.13 100 1016.4
20260831024536 25 0 0.0 0.0 0.00 0.13 0.13 100 1016.4
20260831024019 25 0 0.0 0.0 0.00 0.13 0.13 100 1016.5
20260831023522 25 0 0.0 0.0 0.00 0.13 0.13 100 1016.4
20260831023041 25 0 0.0 0.0 0.00 0.13 0.13 100 1016.4
20260831022526 25 0 0.0 0.0 0.00 0.13 0.13 100 1016.5
20260831022020 25 0 0.0 0.0 0.00 0.13 0.13 100 1016.6
20260831021536 25 0 0.0 0.0 0.00 0.13 0.13 100 1016.6
20260831021020 25 0 0.0 0.0 0.00 0.13 0.13 100 1016.4
20260831020520 25 0 0.0 0.0 0.00 0.13 0.13 100 1016.4
20260831020038 25 0 0.0 0.0 0.00 0.13 0.13 99 1016.6
20260831015520 25 0 0.0 0.0 0.00 0.13 0.13 99 1016.5
20260831015019 25 0 0.0 0.0 0.00 0.13 0.13 99 1016.6
20260831014545 25 0 0.0 0.0 0.00 0.13 0.13 99 1016.5
20260831014020 25 0 0.0 0.0 0.00 0.13 0.13 99 1016.5
20260831013520 25 0 0.0 0.0 0.00 0.13 0.13 99 1016.6
20260831013042 25 0 0.0 0.0 0.00 0.13 0.13 99 1016.6
20260831012521 25 0 0.0 0.0 0.00 0.13 0.13 98 1016.6
20260831012020 26 0 0.0 0.0 0.00 0.13 0.13 98 1016.6
20260831011542 26 0 0.0 0.0 0.00 0.13 0.13 98 1016.7
20260831011020 26 0 0.0 0.0 0.00 0.13 0.13 98 1016.7
20260831010522 26 0 0.0 0.0 0.00 0.13 0.13 98 1016.6
20260831010041 26 0 0.0 0.0 0.00 0.13 0.13 98 1016.6
20260831005519 26 0 0.0 0.0 0.00 0.13 0.13 97 1016.6
20260831005019 26 0 0.0 0.0 0.00 0.13 0.13 97 1016.5
20260831004545 26 0 0.0 0.0 0.00 0.13 0.13 96 1016.5
20260831004024 26 0 0.0 0.0 0.00 0.13 0.13 96 1016.5
20260831003523 26 0 0.0 0.0 0.00 0.13 0.13 96 1016.4
20260831003043 26 0 0.0 0.0 0.00 0.13 0.13 96 1016.3
20260831002520 26 0 0.0 0.0 0.00 0.13 0.13 95 1016.2
20260831002020 27 0 0.0 0.0 0.00 0.13 0.13 95 1016.2
20260831001541 27 0 0.0 1.6 0.00 0.13 0.13 94 1016.2
20260831001020 27 0 0.0 3.2 0.00 0.13 0.13 94 1016.1
20260831000520 27 0 0.0 3.2 0.00 0.13 0.13 94 1016.0
20260831000054 27 0 0.0 0.0 0.00 0.13 0.13 94 1016.0
20260830235518 27 0 0.0 0.0 0.00 0.13 0.13 94 1015.9
20260830235019 27 0 0.0 0.0 0.00 0.13 0.13 93 1015.9
20260830234547 27 0 0.0 1.6 0.00 0.13 0.13 93 1016.0
20260830234024 27 0 0.0 1.6 0.00 0.13 0.13 92 1015.9
20260830233521 27 0 0.0 1.6 0.00 0.13 0.13 92 1015.9
20260830233054 27 0 0.0 1.6 0.00 0.13 0.13 92 1016.0
20260830232520 27 0 0.0 1.6 0.00 0.13 0.13 92 1016.0
20260830232020 27 0 0.0 1.6 0.00 0.13 0.13 91 1016.1
20260830231541 27 0 0.0 1.6 0.00 0.13 0.13 91 1016.0
20260830231021 27 345 0.0 0.0 0.00 0.13 0.13 91 1016.0
20260830230519 28 0 0.0 0.0 0.00 0.13 0.13 91 1016.0
20260830230041 28 0 0.0 0.0 0.00 0.13 0.13 91 1016.0
20260830225519 28 0 0.0 0.0 0.00 0.13 0.13 90 1016.1
20260830225031 28 0 0.0 1.6 0.00 0.13 0.13 90 1016.0
20260830224545 28 0 0.0 6.4 0.00 0.13 0.13 90 1016.1
20260830224021 28 305 0.0 6.4 0.00 0.13 0.13 89 1016.0
20260830223521 28 340 0.0 4.8 0.00 0.13 0.13 89 1015.9
20260830223037 28 18 0.0 4.8 0.00 0.13 0.13 88 1015.9
20260830222519 28 0 0.0 9.7 0.00 0.13 0.13 88 1015.7
20260830222021 28 0 0.0 9.7 0.00 0.13 0.13 87 1015.7
20260830221538 28 15 1.6 9.7 0.00 0.13 0.13 87 1015.6
20260830221021 29 8 0.0 1.6 0.00 0.13 0.13 87 1015.6
20260830220519 29 0 0.0 3.2 0.00 0.13 0.13 86 1015.7
20260830220057 29 311 0.0 6.4 0.00 0.13 0.13 86 1015.6
20260830215521 29 0 0.0 8.0 0.00 0.13 0.13 85 1015.5
20260830215022 29 0 0.0 8.0 0.00 0.13 0.13 84 1015.5
20260830214537 30 358 0.0 8.0 0.00 0.13 0.13 84 1015.4
20260830214020 30 8 1.6 8.0 0.00 0.13 0.13 84 1015.3
20260830213520 30 18 0.0 4.8 0.00 0.13 0.13 83 1015.3
20260830213041 30 359 0.0 4.8 0.00 0.13 0.13 82 1015.3